ONEWEB-0331 (49198 NORAD) Tracking and Keplerian Element Data

This shows tracking and keplerian element data for the satellite.

Feedback or suggestion? Click here.




ElementValue
Catalog49198
NameONEWEB-0331
Epoch Orbit776
Epoch Day300.83334491
Epoch Year2021
RAAN313.915
Inclination87.6091
Eccentricity0.0021567
Argument of Perigee150.1737
Mean Anonmoly211.035
Mean Motion14.56958696
Decay Rate-0.01335462
L11 49198U 21083N 21300.83334491 -.01335462 00000-0 -32001+0 0 9997
L22 49198 87.6091 313.9150 0021567 150.1737 211.0350 14.56958696 7762

Live tracking and technical data element details for ONEWEB-0331 (NORAD 49198). ONEWEB-0331 can be tracked NOW for your location showing map with azimuth and elevation plus other details from your city location.

Track the satellite on the map from your city or location and see movement details for azimuth, elevation, latitude, longitude, range, height, and movement on the map or in text.







IsCatalogInMostPopularTable: catalog: 49198, numindb: 12
Update: records affected: 1



GetName: 49198 ONEWEB-0331

Hit Count: updated at: Thu, 28 Oct 2021 11:59:48 GMT